SCOUT A DEB, 2580

Orbit data source: Space-Track

SCOUT A DEB, 2580 is space debris in LEO originally from a launch on Thu, 18 Aug 1966 UTC launched from the Air Force Western Test Range (AFWTR). Debris objects in space refer to the collection of defunct objects orbiting the Earth. Examples of debris include non-operational satellites, rocket bodies, and fragments generated from explosions, collisions, or faulty payload assembly.

Loading next visibility...
Identifier
2580, 1966-076C
Orbit
LEO
Last TLE update
1 day ago
Origin
Manufacturer
Unknown
Mission
Spacecraft
Bus & Motor
Unknown
Mass
Unknown
Launch date (UTC)
1966-08-18 (59 years ago)
Launch vehicle
Unknown
Launch site
Air Force Western Test Range (AFWTR)
Object type
Payload
Rocket body
Debris
Shape & HBR
Unknown
Radar Cross Section
Small (<0.1 m²)

Expand to show TLE details & history

TLE from 1 day ago
0 SCOUT A DEB
1 02580U 66076C   25181.64799380  .00000197  00000-0  17776-3 0  9991
2 02580  89.1473 318.6264 0093187 311.1958  67.8293 13.78544299943479
Epoch: 2025-06-30T15:33Z
TLE epoch observation values (Epoch: 2025-06-30T15:33:06.664Z)
Latitude
20.01736°
Longitude
166.7029°
Altitude
946.351 km
Speed
7.393 km/s
True Right ascension
21h 15m 44s
True Declination
19° 54' 36"
Sunlit
Object was in full shadow at epoch
Visualization orbit readout
Latitude
17.80737°
Longitude
-13.99265°
Altitude
1,027.495 km
Speed
7.311 km/s
Apparent Right ascension
08h 30m 25s
Apparent Declination
-39° 27' 47"
Sunlit
Object is in daylight
Visualization observer readout
Local Sidereal Time
09:32:02
Azimuth
191.997° SSW
Elevation
9.383°
Doppler factor
1
Orbital elements
Apogee altitude
1,034.503 km
Perigee altitude
897.626 km
Semi-major axis
7,344.201 km
Eccentricity
0.00932
Inclination
89.1473°
RAAN
318.6264°
Arg. of periapsis
311.1958°
True anomaly
Unknown
Mean anomaly
67.8293°
Eccentric anomaly
Unknown
Mean motion
3.44847 °/min
Orbital period
104.39 mins
BSTAR
0.00017776
Loading maneuver chart data...
Loading SW <> Apogee altitude chart data...
Loading historical data...
Loading historical data...
Loading historical data...
Loading historical data...
Loading historical data...
Loading historical data...
Loading historical data...

SCOUT A DEB Visibility forecast

Observer location: undefined°, undefined°

Span
Click to sort rows by Start time (UTC) header in descending order
Start Az.
Max El. time (UTC)
Max El. Az.
Max El.
End time (UTC)
End Az.
10 mins2025-07-02 09:22:43.436Z171.446° S2025-07-02 09:27:43.436Z48.487° ENE44.269°2025-07-02 09:32:43.436Z1.846° NNE
4 mins2025-07-02 11:10:43.436Z265.589° W2025-07-02 11:12:43.436Z286.616° WNW13.788°2025-07-02 11:14:43.436Z307.089° NW
9 mins2025-07-02 20:19:43.436Z31.738° NE2025-07-02 20:23:43.436Z80.52° E26.212°2025-07-02 20:28:43.436Z137.537° SSE
|